EST,Max TemperatureF,Mean TemperatureF,Min TemperatureF,Max Dew PointF,MeanDew PointF,Min DewpointF,Max Humidity, Mean Humidity, Min Humidity, Max Sea Level PressureIn, Mean Sea Level PressureIn, Min Sea Level PressureIn, Max VisibilityMiles, Mean VisibilityMiles, Min VisibilityMiles, Max Wind SpeedMPH, Mean Wind SpeedMPH, Max Gust SpeedMPH,PrecipitationIn, CloudCover, Events, WindDirDegrees
2012-12-1,59,47,35,48,42,36,100,77,63,30.18,30.10,30.02,10,6,1,10,8,16,0.00,4,,156
2012-12-2,57,55,53,54,52,50,94,88,82,30.03,29.98,29.94,10,6,4,9,6,,0.00,8,,230
2012-12-3,64,60,55,63,58,55,100,91,73,30.05,29.96,29.89,10,5,2,17,9,25,0.00,6,Rain,173
2012-12-4,53,47,41,45,37,30,93,68,44,30.14,30.08,30.02,10,9,5,12,6,,0.00,4,Rain,273
2012-12-5,37,34,28,23,20,19,74,59,48,30.42,30.38,30.35,10,10,10,12,5,16,0.00,0,,68
2012-12-6,39,34,30,32,26,21,75,69,52,30.20,30.09,29.97,10,10,10,13,8,,0.00,1,,150
2012-12-7,46,42,39,43,40,37,100,91,81,29.96,29.92,29.87,7,4,2,5,1,,0.00,8,Rain,54
2012-12-8,41,39,37,41,35,30,100,87,75,30.06,29.96,29.86,10,8,2,9,6,,0.00,8,,26
2012-12-9,39,36,35,37,35,32,93,90,81,30.02,29.88,29.75,10,7,2,14,12,23,0.00,8,Rain,105
2012-12-10,37,34,32,32,30,28,93,88,81,29.85,29.76,29.69,10,6,1,14,9,21,0.00,8,Rain-Snow,267
2012-12-11,32,29,26,27,21,19,93,70,60,30.12,30.05,29.98,10,10,7,14,9,18,0.00,3,,224
2012-12-12,41,34,26,25,23,21,80,63,49,30.34,30.31,30.26,10,10,10,10,6,,0.00,1,,190
2012-12-13,46,37,28,25,24,21,75,58,43,30.33,30.26,30.17,10,10,10,17,9,23,0.00,0,,192
2012-12-14,48,37,26,30,27,23,86,66,46,30.24,30.18,30.15,10,10,10,8,2,,0.00,0,,163
2012-12-15,46,45,44,43,40,36,87,81,71,29.83,29.75,29.67,10,9,5,15,11,23,0.00,8,Rain,143
2012-12-16,50,47,41,45,43,39,93,88,81,29.66,29.64,29.62,10,6,2,17,9,16,0.00,8,,243
2012-12-17,39,38,37,34,33,30,87,79,75,29.73,29.68,29.64,10,7,4,7,1,,0.00,8,,285
2012-12-18,37,34,30,34,30,27,87,79,75,29.80,29.73,29.67,10,7,5,10,5,,0.00,8,Rain,179
2012-12-19,42,37,32,36,33,32,100,80,66,30.06,30.03,29.94,7,6,3,8,2,,0.00,7,,119
2012-12-20,50,44,37,46,39,30,93,86,70,30.10,29.34,29.11,10,8,2,25,17,36,0.00,8,Rain,151
2012-12-21,33,32,32,30,26,25,93,78,75,30.00,29.76,29.49,10,8,0,26,20,38,0.00,8,Snow,313
2012-12-22,32,30,28,23,22,21,75,71,69,30.16,30.13,30.09,10,10,10,10,8,,0.00,4,,250
2012-12-23,33,25,17,25,21,14,86,73,64,29.99,29.96,29.92,10,9,7,8,3,,0.00,5,,11
2012-12-24,32,29,26,27,24,21,86,80,75,29.88,29.85,29.80,10,10,7,8,6,,0.00,5,,46
2012-12-25,,,,,,,,,,,,,,,,,,,,,,
2012-12-26,30,29,26,25,23,19,86,79,64,30.00,29.93,29.87,10,5,1,17,13,28,0.00,8,Snow,20
2012-12-27,32,28,24,25,20,18,86,73,64,30.15,30.12,30.10,10,10,10,6,3,,0.00,8,,314
2012-12-28,30,29,28,27,25,25,93,84,80,30.14,30.03,29.94,10,6,1,10,4,,0.00,8,Snow,142
2012-12-29,30,29,28,27,26,25,86,84,80,29.95,29.88,29.84,4,2,1,7,4,,0.00,8,Snow,291
2012-12-30,24,20,17,18,13,10,79,72,63,30.36,30.31,30.25,10,8,5,9,8,16,0.00,4,,215
2012-12-31,35,32,30,28,23,19,87,67,60,30.05,30.01,29.98,10,10,10,15,11,24,0.00,5,,241